www.pogodaiklimat.ru

ПОГОДА в Charleville Aero

  • Прогноз погоды в Charleville Aero
  • Монитор погоды в Charleville Aero
  • Климат города

АРХИВ ПОГОДЫ в Charleville Aero

Время (UTC), дата Ветер
(напр.,м/с)
 
Видим.   Явления Облачность Т
(С)
Тd
(С)
f
(%)
Тe
(С)
Тes
(С)
Комфортность P
(гПа)
Po
(гПа)
Тmin
(С)
Tmax
(С)
R
(мм)
S
(см)
05 13.01 СЗ 6 н/о 5/0 2000 м
[]
+39.8 +17.3 27 +42 +47 опасность
перегрева
1003.5 969.9
06 13.01 СЗ 7 н/о н/о +39.5 +17.6 28 +42 +42 опасность
перегрева
1002.6 969.1
08 13.01 Ю 6 н/о ясно +33.2 +18.9 43 +38 +39 очень
душно
1003.2 969.6
09 13.01 С 9 н/о н/о +28.9 +21.1 63 +36 +36 очень
душно
1004.1 970.5
11 13.01 штиль 0 н/о н/о +31.9 +20.2 50 +38 +38 очень
душно
1004.3 970.7
12 13.01 С 2 н/о н/о +30.5 +23.9 68 +42 +42 опасность
перегрева
1004.4 970.8
14 13.01 СВ 3 н/о 5/0
[]
+31.3 +22.3 59 +40 +40 очень
душно
1004.4 970.8 +41.0
15 13.01 СВ 2 н/о н/о +31.5 +21.4 55 +39 +39 очень
душно
1003.5 969.9
17 13.01 СВ 6 н/о 9/0
[]
+30.0 +20.8 58 +37 +37 очень
душно
1003.5 969.9
18 13.01 СВ 7 н/о н/о +26.2 +23.1 83 +35 +35 очень
душно
1003.9 970.3
20 13.01 С 5 н/о в посл. час дождь {туман} ясно +25.0 +22.7 87 +33 +33 очень
душно
1006.1 972.4
21 13.01 С 6 н/о н/о +26.2 +22.9 82 +35 +35 очень
душно
1006.9 973.2
23 13.01 С 6 н/о в посл. час дождь {туман} н/о +26.3 +21.3 74 +33 +33 очень
душно
1007.9 974.2
00 14.01 С 5 н/о н/о +27.5 +22.2 73 +36 +36 очень
душно
1007.8 974.1
02 14.01 СЗ 6 н/о н/о +31.9 +22.3 57 +41 +41 опасность
перегрева
1007.0 973.3 +24.7
03 14.01 СЗ 6 н/о н/о +33.0 +21.5 51 +41 +41 опасность
перегрева
1006.0 972.3
05 14.01 СЗ 4 н/о 3/3 1500 м
[]
+37.0 +21.6 41 +45 +51 опасность
перегрева
1003.2 969.6
06 14.01 СЗ 5 н/о н/о +29.7 +20.5 58 +37 +37 очень
душно
1002.3 968.8
08 14.01 ЮЗ 11 1000 м туман 10/10 200 м
[]
+24.3 +22.4 89 +32 +32 очень
душно
1006.5 972.8
09 14.01 В 4 н/о н/о +24.4 +23.0 92 +32 +32 очень
душно
1007.6 973.9
11 14.01 З 5 н/о туман местами 10/10 1500 м
[]
+24.1 +22.4 90 +31 +31 очень
душно
1007.1 973.4
12 14.01 ЮЗ 4 н/о н/о +24.0 +22.6 92
14 14.01 С 2 н/о {туман} 5/0
[]
+24.5 +22.8 90 +37.5
15 14.01 штиль 0 н/о н/о +24.7 +22.9 90
17 14.01 С 2 н/о {туман} 8/8 600 м
[]
+25.0 +23.1 89
18 14.01 З 2 н/о н/о +24.8 +23.2 91
20 14.01 штиль 0 н/о н/о +24.6 +23.2 92
21 14.01 Ю 3 н/о н/о +25.2 +23.4 90
23 14.01 Ю 6 н/о 5/5 300 м
[]
+27.4 +21.7 71
00 15.01 ЮВ 5 н/о н/о +29.3 +21.5 63
02 15.01 ЮВ 5 н/о ясно +31.7 +18.3 45 +23.7
03 15.01 Ю 6 н/о н/о +32.9 +15.0 34
05 15.01 Ю 5 н/о н/о +34.6 +14.0 29
06 15.01 Ю 5 н/о н/о +35.4 +13.0 26
08 15.01 ЮВ 5 н/о н/о +35.3 +8.9 20
09 15.01 ЮВ 4 н/о н/о +33.3 +8.7 22
11 15.01 ЮВ 2 н/о н/о +28.4 +9.2 30
12 15.01 ЮВ 3 н/о н/о +28.3 +10.5 33
14 15.01 С 3 н/о 5/0
[]
+25.7 +16.3 56 +36.3
15 15.01 СВ 4 н/о н/о +24.9 +18.4 67
17 15.01 СВ 1 н/о н/о +24.1 +21.2 84
18 15.01 штиль 0 н/о н/о +23.1 +20.6 86
20 15.01 В 2 н/о н/о +22.0 +19.2 84
21 15.01 штиль 0 н/о н/о +25.3 +19.4 70
23 15.01 С 5 н/о н/о +28.9 +20.1 59
00 16.01 С 5 н/о н/о +30.8 +20.7 55
02 16.01 СВ 5 н/о н/о +33.6 +18.1 40 +21.9
03 16.01 СВ 3 н/о н/о +34.4 +17.6 37
05 16.01 С 4 н/о 3/0
[]
+35.5 +17.2 34
06 16.01 СВ 3 н/о н/о +36.4 +16.5 31 +39 +39 очень
душно
1006.7 973.0
08 16.01 СВ 2 н/о {туман} ясно +30.2 +21.8 61 +39 +40 очень
душно
1008.3 974.6
09 16.01 СВ 5 н/о н/о +30.9 +21.1 56 +38 +38 очень
душно
1008.6 974.9
11 16.01 штиль 0 н/о {туман} н/о +28.1 +21.6 68 +36 +36 очень
душно
1009.4 975.6
12 16.01 В 3 н/о н/о +28.8 +21.3 64 +36 +36 очень
душно
1010.0 976.2
14 16.01 СВ 4 н/о н/о +28.3 +20.8 64 +35 +35 очень
душно
1010.3 976.5 +37.6
15 16.01 СВ 5 н/о н/о +28.0 +20.8 65 +35 +35 очень
душно
1010.4 976.6

 

Местоположение метеостанции Charleville Aero (Квинсленд, Австралия): широта -26.41 долгота 146.26 высота над уровнем моря 303 м.

В архиве по умолчанию представлена погода в Charleville Aero за последнюю неделю. Архивные данные за месяц целиком и за предыдущие месяцы, начиная с января 2011 года, Вы можете получить, выбрав интересующий диапазон дат из раскрывающегося списка и нажав кнопку "Ввод!".

Внимание! Время в таблицах - всемирное. Для получения местного времени необходимо прибавить поправку, которая в Charleville Aero равна 10 ч.

Ветер - указаны скорость ветра в м/с - средняя за 10 мин, порывы в срок и между сроками (в фигурных скобках) и направление, откуда дует ветер: С - северный, СВ - северо-восточный, В - восточный, ЮВ - юго-восточный, Ю - южный, ЮЗ - юго-западный, З - западный, СЗ - северо-западный.
Видимость - горизонтальная дальность видимости в метрах или километрах. При видимости от 1 до 10 км при отсутствии осадков обычно наблюдается дымка, при ухудшении видимости до 1 км и менее - туман. В сухую погоду видимость может ухудшаться дымом, пылью или мглою.
Явления - указаны атмосферные явления, наблюдавшиеся в срок или в последний час перед сроком; фигурными скобками обозначены явления, наблюдавшиеся между сроками (за 1-3 часа до срока); квадратными скобками обозначены град или гололедные отложения с указанием их диаметра в мм.
Облачность - указаны через наклонную черту общая и нижняя облачность в баллах и высота нижней границы облаков в метрах; квадратными скобками обозначены формы облаков: Ci - перистые, Cs - перисто-слоистые, Cc - перисто-кучевые, Ac - высококучевые, As - высокослоистые, Sc - слоисто-кучевые, Ns - слоисто-дождевые, Cu - кучевые, Cb - кучево-дождевые. Подробнее классификацию облаков см. в Атласе облаков (PDF).
T - Температура воздуха - температура, измеренная на высоте 2 м над землей.
Td - Температура точки росы - температура, при понижении до которой содержащийся в воздухе водяной пар достигнет насыщения.
f - Относительная влажность воздуха - влажноcть воздуха, измеренная на высоте 2 м над землей.
Te - Эффективная температура - температура, которую ощущает одетый по сезону человек в тени. Характеристика душности погоды. При расчете учитывается влияние влажности воздуха и скорости ветра на теплоощущения человека.
Tes - Эффективная температура на солнце - температура, которую ощущает человек, с поправкой на солнечный нагрев. Характеристика знойности погоды. Зависит от высоты солнца над горизонтом, облачности и скорости ветра. Ночью, в пасмурную погоду, а также при ветре 12 м/с и более поправка равна нулю.
P - Атмосферное давление - приведенное к уровню моря атмосферное давление.
Po - Атмосферное давление - измеренное на уровне метеостанции атмосферное давление.
Tmin - Минимальная температура - минимум температуры воздуха на высоте 2 м над землей.
Tmax - Максимальная температура - максимум температуры воздуха на высоте 2 м над землей.
R - Количество осадков - Количество выпавших осадков, мм. При наведении курсора мыши на число - период времени, за который выпало указанное количество осадков.
S - Снежный покров - Высота снежного покрова, см. При наведении курсора мыши на число - состояние снежного покрова и степень покрытия местности в баллах.